[[{"header":{"parameterUnit":"m.s-1","parameterCategory":1,"la1":30.2991,"la2":30.254,"lo1":-89.0895,"lo2":-89.0444,"dy":0.0017,"dx":0.0017,"nx":28,"ny":28,"refTime":"2024-08-20T09:00:00:Z","depth":0,"parameterNumber":2,"parameterNumberName":"U-component_of_WINDS"},"data":[0,0,0,0,0,0,0,0,0,0,0,0,0,0,0,0,0,0,0,0,0,0,0,0,0,0,0,0,0,0,0,0,0,0,0,0,0,0,0,0,0,0,0,0,0,0,0,0,0,0,0,0,0,0,0,0,0,0,0.1399,0.1399,0,0.1448,0.1449,0.145,0.1508,0.1509,0.1509,0.151,0.1561,0.1562,0.1562,0,0,0,0,0,0,0,0,0,0,0,0,0,0.1354,0.1354,0.1399,0.1399,0.14,0.1448,0.1449,0.145,0.1508,0.1509,0.151,0.1511,0.1561,0.1562,0.1563,0,0,0,0,0,0,0,0,0,0,0,0,0,0.1385,0.1355,0.1399,0.1435,0.1438,0.1448,0.1449,0.145,0.1507,0.1509,0.151,0.1511,0.1561,0.1562,0.1563,0.1541,0,0,0.1565,0.1565,0,0,0,0,0,0,0,0,0.1384,0.1387,0.1429,0.1432,0.1436,0.1473,0.1452,0.1481,0.1507,0.1481,0.151,0.1512,0.1531,0.1534,0.1541,0.1544,0.1546,0.1565,0.1566,0.1566,0.1566,0,0,0,0,0,0,0,0.1381,0.1385,0.1419,0.1429,0.1434,0.1448,0.1454,0.1458,0.1498,0.1484,0.1488,0.1493,0.1533,0.154,0.1542,0.1546,0.1565,0.1566,0.1566,0.1567,0.1533,0.1532,0,0,0,0,0,0,0.1374,0.1383,0.1417,0.142,0.1413,0.1448,0.1455,0.146,0.1498,0.1505,0.1492,0.1495,0.1538,0.1541,0.1544,0.1521,0.1566,0.1567,0.1567,0.1534,0.1533,0.1531,0,0,0,0,0,0,0.1373,0.1376,0.1415,0.1403,0.1409,0.1447,0.1453,0.146,0.1467,0.1504,0.1512,0.1491,0.1539,0.1543,0.1541,0.1524,0.1567,0.1568,0.1536,0.1534,0.1532,0.1474,0,0,0,0,0,0,0.1371,0.1375,0.1368,0.1402,0.1409,0.1411,0.1452,0.146,0.1468,0.1473,0.1506,0.1512,0.154,0.154,0.1542,0.1526,0.1568,0.1538,0.1535,0.1533,0.1478,0.1471,0.1464,0,0,0,0,0,0.1369,0.135,0.1367,0.1371,0.14,0.141,0.1414,0.1446,0.1467,0.1459,0.1483,0.1511,0.1525,0.1539,0.1542,0.1526,0.1539,0.1536,0.1533,0.1481,0.1472,0.1464,0,0,0,0,0,0,0.1313,0.1355,0.1375,0.1366,0.1384,0.1419,0.1411,0.1436,0.1449,0.1453,0.1493,0.15,0.1493,0.1509,0.1524,0.1506,0.1536,0.1534,0.1496,0.1488,0.1481,0.1477,0.1569,0,0,0,0,0,0.1299,0.1303,0.134,0.1329,0.1337,0.1372,0.1377,0.1401,0.1421,0.1429,0.1453,0.1471,0.148,0.1485,0.1495,0.1481,0.1488,0.1471,0.1464,0.1458,0.1455,0.1448,0.1441,0.1521,0.1521,0.1521,0,0,0.1271,0.1295,0.1295,0.1318,0.1335,0.1338,0.1378,0.138,0.1382,0.1429,0.1429,0.1447,0.147,0.1461,0.1459,0.1475,0.1435,0.1454,0.1449,0.145,0.1444,0.1437,0.143,0.1519,0.1519,0.152,0,0,0.1222,0.1241,0.1233,0.1248,0.1273,0.1297,0.1294,0.1326,0.134,0.134,0.1375,0.1379,0.1393,0.1408,0.1417,0.1372,0.1398,0.1374,0.1338,0.1331,0.1324,0.1319,0.1302,0.1296,0.1372,0.1371,0.1371,0,0.1185,0.1191,0.1226,0.1225,0.1234,0.1276,0.1268,0.1282,0.1308,0.1313,0.133,0.1348,0.1367,0.1362,0.1351,0.1358,0.1356,0.1371,0.1323,0.1317,0.1313,0.1297,0.1291,0.1368,0.1369,0.1369,0.1369,0,0.1143,0.1146,0.1137,0.1161,0.1169,0.1164,0.1198,0.1202,0.1225,0.1246,0.1245,0.1269,0.1284,0.1285,0.1307,0.1283,0.1292,0.1315,0.1346,0.1301,0.1288,0.1282,0.1364,0.1365,0.1366,0.1367,0,0,0.106,0.1103,0.1098,0.1109,0.1139,0.1143,0.114,0.1154,0.1156,0.1173,0.1171,0.1182,0.1203,0.1214,0.1238,0.1232,0.1194,0.1256,0.1257,0.1243,0.1167,0.1149,0.1141,0.1211,0.121,0.121,0.1165,0,0.1016,0.1013,0.1044,0.1033,0.1037,0.1076,0.1074,0.1092,0.1112,0.1117,0.1139,0.1146,0.1174,0.1181,0.1176,0.1199,0.1179,0.1203,0.121,0.121,0.1202,0.1134,0.1115,0.1072,0.116,0.1159,0.1158,0,0.0964,0.0977,0.0966,0.0995,0.0998,0.0995,0.101,0.1015,0.1036,0.1051,0.1062,0.1089,0.1089,0.1118,0.1117,0.1132,0.1137,0.1148,0.1148,0.1149,0.1181,0.1133,0.1059,0.1052,0.115,0.1151,0.1152,0,0.0903,0.0918,0.0914,0.0922,0.0956,0.0953,0.0967,0.0989,0.0995,0.1009,0.1013,0.1026,0.1033,0.1043,0.1073,0.1091,0.1068,0.11,0.108,0.1079,0.1073,0.1072,0.0997,0.1076,0.1076,0.1076,0.1077,0,0.085,0.0842,0.0887,0.0884,0.0875,0.0911,0.0902,0.092,0.0939,0.094,0.0975,0.0975,0.1015,0.102,0.1043,0.1038,0.1041,0.1053,0.1059,0.1049,0.1048,0.1053,0.1056,0.1075,0.1075,0.1076,0.1076,0,0.0782,0.0811,0.0808,0.0841,0.0849,0.0841,0.0869,0.0867,0.0889,0.0889,0.0892,0.0926,0.0933,0.0964,0.0978,0.0994,0.0981,0.0994,0.0973,0.0977,0.0955,0.0956,0.088,0.0872,0.0956,0.0955,0.0955,0,0.0746,0.074,0.0771,0.0774,0.0787,0.0791,0.0798,0.0832,0.0838,0.086,0.0855,0.0865,0.0875,0.0884,0.091,0.0921,0.0934,0.0906,0.0936,0.0926,0.0933,0.0932,0.0931,0.09,0.0899,0.0898,0.0897,0,0.0678,0.0693,0.0701,0.0713,0.072,0.0732,0.0746,0.0746,0.0785,0.0788,0.0796,0.0803,0.0817,0.0826,0.0841,0.0856,0.0882,0.0888,0.0883,0.0873,0.0861,0.0867,0.0955,0.0889,0.089,0.0891,0.0891,0.0891,0.0625,0.0621,0.0642,0.065,0.0663,0.0675,0.0675,0.0696,0.0703,0.0717,0.0737,0.0741,0.0762,0.0785,0.0797,0.0801,0.0816,0.081,0.0808,0.0806,0.0801,0.0861,0.0804,0.0804,0.0804,0.0804,0.0804,0,0.0559,0.0574,0.058,0.0598,0.0604,0.0628,0.0644,0.0647,0.065,0.0667,0.0675,0.0683,0.0692,0.0718,0.0729,0.0727,0.0739,0.0728,0.0729,0.0731,0.0787,0.0789,0.0718,0.0718,0.0718,0.0718,0.0718,0.0718,0.0525,0.052,0.0537,0.0539,0.0554,0.0559,0.0566,0.0577,0.059,0.0597,0.0604,0.0621,0.0641,0.0654,0.0662,0.067,0.0672,0.0657,0.0668,0.0719,0.0728,0.0736,0.0738,0.0657,0.0657,0.0612,0.0612,0.0612]},{"header":{"parameterUnit":"m.s-1","parameterCategory":1,"la1":30.2991,"la2":30.254,"lo1":-89.0895,"lo2":-89.0444,"dy":0.0017,"dx":0.0017,"nx":28,"ny":28,"refTime":"2024-08-20T09:00:00:Z","depth":0,"parameterNumber":3,"parameterNumberName":"V-component_of_WINDS"},"data":[0,0,0,0,0,0,0,0,0,0,0,0,0,0,0,0,0,0,0,0,0,0,0,0,0,0,0,0,0,0,0,0,0,0,0,0,0,0,0,0,0,0,0,0,0,0,0,0,0,0,0,0,0,0,0,0,0,0,-1.1965,-1.1965,0,-1.1974,-1.1974,-1.1974,-1.2,-1.2001,-1.2001,-1.2002,-1.2009,-1.2009,-1.2009,0,0,0,0,0,0,0,0,0,0,0,0,0,-1.197,-1.197,-1.1965,-1.1965,-1.1965,-1.1974,-1.1974,-1.1974,-1.2,-1.2001,-1.2002,-1.2002,-1.2009,-1.2009,-1.2009,0,0,0,0,0,0,0,0,0,0,0,0,0,-1.1972,-1.197,-1.1965,-1.1979,-1.1981,-1.1974,-1.1974,-1.1974,-1.2,-1.2001,-1.2002,-1.2003,-1.201,-1.2009,-1.2009,-1.1988,0,0,-1.2007,-1.2007,0,0,0,0,0,0,0,0,-1.1972,-1.1972,-1.1977,-1.1978,-1.198,-1.1987,-1.1979,-1.1979,-1.2,-1.1993,-1.2002,-1.2003,-1.2001,-1.2001,-1.2001,-1.1989,-1.1989,-1.2007,-1.2007,-1.2007,-1.2006,0,0,0,0,0,0,0,-1.1972,-1.1972,-1.1968,-1.1977,-1.1979,-1.1985,-1.1986,-1.1979,-1.1992,-1.1993,-1.1995,-1.1996,-1.2002,-1.2001,-1.2001,-1.1989,-1.2007,-1.2007,-1.2006,-1.2006,-1.1964,-1.1963,0,0,0,0,0,0,-1.197,-1.1971,-1.1968,-1.1969,-1.1978,-1.1984,-1.1986,-1.1984,-1.1992,-1.1994,-1.1995,-1.1997,-1.2002,-1.2002,-1.2002,-1.1981,-1.2007,-1.2006,-1.2006,-1.1964,-1.1963,-1.1962,0,0,0,0,0,0,-1.197,-1.1969,-1.1968,-1.1971,-1.1971,-1.1983,-1.1981,-1.1983,-1.1983,-1.1994,-1.1996,-1.1992,-1.2003,-1.2003,-1.1992,-1.1981,-1.2006,-1.2005,-1.1965,-1.1964,-1.1963,-1.1937,0,0,0,0,0,0,-1.197,-1.1969,-1.1961,-1.197,-1.1971,-1.1958,-1.198,-1.1983,-1.1982,-1.1985,-1.1991,-1.1993,-1.2003,-1.1993,-1.1992,-1.1981,-1.2005,-1.1966,-1.1965,-1.1963,-1.1939,-1.1935,-1.1932,0,0,0,0,0,-1.197,-1.1953,-1.1961,-1.196,-1.1961,-1.1957,-1.1957,-1.197,-1.1981,-1.1974,-1.1981,-1.1993,-1.1983,-1.1992,-1.1991,-1.198,-1.1967,-1.1965,-1.1963,-1.1941,-1.1936,-1.1932,0,0,0,0,0,0,-1.1941,-1.1954,-1.1963,-1.1948,-1.1952,-1.1962,-1.1953,-1.1964,-1.1963,-1.1966,-1.1981,-1.1982,-1.197,-1.1974,-1.1983,-1.1962,-1.1977,-1.1975,-1.196,-1.1956,-1.1952,-1.1952,-1.2005,0,0,0,0,0,-1.1933,-1.1929,-1.194,-1.1926,-1.1927,-1.194,-1.1938,-1.1948,-1.1952,-1.1953,-1.1959,-1.1962,-1.196,-1.1958,-1.1956,-1.194,-1.1942,-1.1932,-1.1928,-1.1925,-1.1923,-1.1918,-1.1914,-1.1956,-1.1956,-1.1956,0,0,-1.1916,-1.1923,-1.1919,-1.192,-1.1924,-1.192,-1.1941,-1.1935,-1.1932,-1.1952,-1.1943,-1.1948,-1.1952,-1.194,-1.1935,-1.1942,-1.1912,-1.1923,-1.192,-1.192,-1.1915,-1.1911,-1.1908,-1.1955,-1.1955,-1.1955,0,0,-1.1884,-1.1887,-1.1877,-1.1881,-1.1887,-1.1896,-1.1894,-1.1902,-1.1907,-1.1899,-1.1915,-1.1911,-1.1906,-1.191,-1.191,-1.1882,-1.1894,-1.1881,-1.1863,-1.1857,-1.1853,-1.1851,-1.1842,-1.1839,-1.1879,-1.1879,-1.1879,0,-1.1862,-1.1856,-1.187,-1.1865,-1.1866,-1.1885,-1.1876,-1.1878,-1.1883,-1.1883,-1.1892,-1.1888,-1.1892,-1.1882,-1.1875,-1.1875,-1.1873,-1.1881,-1.1853,-1.185,-1.1848,-1.184,-1.1837,-1.1877,-1.1878,-1.1878,-1.1878,0,-1.1831,-1.1827,-1.1818,-1.1824,-1.1824,-1.1816,-1.1829,-1.1828,-1.1837,-1.1845,-1.1838,-1.1844,-1.1845,-1.1843,-1.1851,-1.1835,-1.184,-1.185,-1.1866,-1.1842,-1.1835,-1.1832,-1.1875,-1.1876,-1.1876,-1.1877,0,0,-1.1779,-1.1795,-1.1792,-1.1796,-1.1805,-1.1802,-1.1796,-1.1798,-1.1797,-1.18,-1.1796,-1.1793,-1.1803,-1.1805,-1.1814,-1.1809,-1.1789,-1.182,-1.1821,-1.1816,-1.1773,-1.1766,-1.1762,-1.1796,-1.1796,-1.1795,-1.1773,0,-1.1751,-1.1742,-1.1755,-1.1743,-1.1741,-1.176,-1.1755,-1.176,-1.1768,-1.1767,-1.1775,-1.1774,-1.1787,-1.1788,-1.1784,-1.1792,-1.178,-1.1794,-1.1794,-1.1793,-1.1794,-1.1758,-1.175,-1.1729,-1.177,-1.177,-1.1769,0,-1.1716,-1.1719,-1.1707,-1.172,-1.1719,-1.1714,-1.1719,-1.1718,-1.1725,-1.1731,-1.1733,-1.1745,-1.174,-1.1755,-1.175,-1.1759,-1.1759,-1.1764,-1.1763,-1.1765,-1.1781,-1.176,-1.1722,-1.172,-1.1765,-1.1765,-1.1766,0,-1.1683,-1.1684,-1.1678,-1.168,-1.1694,-1.169,-1.1696,-1.1704,-1.1705,-1.1708,-1.171,-1.1712,-1.1713,-1.1715,-1.1728,-1.1737,-1.1722,-1.1737,-1.1728,-1.1727,-1.1724,-1.1725,-1.1688,-1.1722,-1.1722,-1.1722,-1.1722,0,-1.165,-1.1643,-1.1664,-1.166,-1.1653,-1.1669,-1.1661,-1.1668,-1.1675,-1.1674,-1.1689,-1.1688,-1.1704,-1.1704,-1.1713,-1.1709,-1.1709,-1.1714,-1.1717,-1.1714,-1.1713,-1.1715,-1.1718,-1.1721,-1.1722,-1.1722,-1.1722,0,-1.1612,-1.1625,-1.1621,-1.1635,-1.1638,-1.1632,-1.1644,-1.1642,-1.1651,-1.1649,-1.165,-1.1664,-1.1665,-1.1678,-1.1681,-1.1688,-1.168,-1.1685,-1.1678,-1.168,-1.1671,-1.1673,-1.1635,-1.1632,-1.1667,-1.1667,-1.1666,0,-1.1591,-1.1586,-1.1601,-1.1601,-1.1607,-1.1607,-1.1609,-1.1625,-1.1626,-1.1635,-1.1632,-1.1635,-1.1638,-1.1639,-1.165,-1.1653,-1.1659,-1.1646,-1.1659,-1.1657,-1.1661,-1.1662,-1.1662,-1.1643,-1.1643,-1.1642,-1.1642,0,-1.1554,-1.1561,-1.1564,-1.1569,-1.1572,-1.1577,-1.1582,-1.1582,-1.1599,-1.16,-1.1603,-1.1605,-1.161,-1.1613,-1.1619,-1.1624,-1.1636,-1.1638,-1.1636,-1.1633,-1.163,-1.1634,-1.1672,-1.1638,-1.1639,-1.1639,-1.1639,-1.1639,-1.1525,-1.1523,-1.1533,-1.1536,-1.1543,-1.1548,-1.1547,-1.1557,-1.156,-1.1566,-1.1575,-1.1576,-1.1585,-1.1594,-1.1599,-1.16,-1.1607,-1.1604,-1.1604,-1.1603,-1.1602,-1.1629,-1.1601,-1.1601,-1.1601,-1.1601,-1.1601,0,-1.149,-1.1498,-1.1501,-1.151,-1.1512,-1.1524,-1.1532,-1.1533,-1.1535,-1.1542,-1.1546,-1.1549,-1.1553,-1.1565,-1.1569,-1.1569,-1.1574,-1.1569,-1.157,-1.1572,-1.1595,-1.1596,-1.1565,-1.1565,-1.1565,-1.1565,-1.1565,-1.1565,-1.1472,-1.147,-1.1479,-1.148,-1.1488,-1.1491,-1.1494,-1.15,-1.1506,-1.151,-1.1514,-1.1522,-1.1531,-1.1537,-1.1541,-1.1545,-1.1546,-1.154,-1.1545,-1.1566,-1.157,-1.1573,-1.1575,-1.154,-1.154,-1.1523,-1.1522,-1.1522]}]]